NOAA 16 DEB, 41065

Orbit data source: Space-Track

NOAA 16 DEB, 41065 is space debris in SSO originally from a launch on Thu, 21 Sep 2000 UTC launched from the Air Force Western Test Range (AFWTR). Debris objects in space refer to the collection of defunct objects orbiting the Earth. Examples of debris include non-operational satellites, rocket bodies, and fragments generated from explosions, collisions, or faulty payload assembly.

Loading next visibility...
Identifier
41065, 2000-055Y
Orbit
SSO
Country
Flag of USUS
Related business
Manufacturer
Unknown
Mission
Spacecraft
Bus & Motor
Unknown
Mass
Unknown
Launch date (UTC)
2000-09-21 (25 years ago)
Launch vehicle
Unknown
Launch site
Air Force Western Test Range (AFWTR)
Object type
Payload
Rocket body
Debris
Shape & HBR
Unknown shape, 0.1 m
Radar Cross Section
Small (<0.1 m²)

Expand to show TLE details & history
Last TLE update: 13 hours ago

TLE from 13 hours ago
0 NOAA 16 DEB
1 41065U 00055Y   25304.14652881  .00003226  00000-0  15088-2 0  9992
2 41065  98.6496 355.8761 0011148  41.9939 318.2091 14.20923101512134
Epoch: 2025-10-31T03:31Z
TLE epoch observation values (Epoch: 2025-10-31T03:31:00.089Z)
Latitude
-0°
Longitude
-96.56942°
Altitude
819.168 km
Speed
7.447 km/s
True Right ascension
23h 43m 30s
True Declination
0° 00' 00"
Sunlit
Object was in full shadow at epoch
Visualization orbit readout
Latitude
Unknown
Longitude
Unknown
Altitude
Unknown
Speed
Unknown
Apparent Right ascension
Unknown
Apparent Declination
Unknown
Sunlit
N/A
Visualization observer readout
Local Sidereal Time
11:53:57
Azimuth
Unknown
Elevation
Unknown
Doppler factor
Unknown
Orbital elements
Apogee altitude
827.411 km
Perigee altitude
811.363 km
Semi-major axis
7,197.524 km
Eccentricity
0.00111
Inclination
98.6496°
RAAN
355.8761°
Arg. of periapsis
41.9939°
True anomaly
318.12388°
Mean anomaly
318.2091°
Eccentric anomaly
318.1665°
Mean motion
3.55442 °/min
Orbital period
101.28 mins
BSTAR
0.0015088
Loading maneuver chart data...
Computing Atmospheric mass density...
Loading historical data...
Loading historical data...
Loading historical data...
Loading historical data...
Loading historical data...
Loading historical data...
Loading historical data...

Documentation

Showing up to 5 results
|